Flag for Canada Weather past 2 weeks in Peterborough, Ontario, Canada

Now
55 °F

Clear.


Feels Like: 55 °F
Forecast: 52 / 69 °F
Wind: 5 mph from Northwest

Location: Peterborough Airport

Current Time: Aug 28, 2014 at 1:51:06 AM

Latest Report: Aug 28, 2014 at 1:00 AM


Visibility: 9 mi

Pressure: 30.04 "Hg

Humidity: 88%

Dew point: 52 °F

Location of PeterboroughLocation

Historic Weather in Peterborough — Graph

°F

Peterborough temperature yesterday

Maximum temperature yesterday: 73 °F (at 1:00 PM)
Minimum temperature yesterday: 55 °F (at 11:00 PM)
Average temperature yesterday: 66 °F

Past Weeks' High & Low Weather Summary

 TemperatureHumidityPressure
High81 °F (Aug 26, 2:00 PM)100% (Aug 16, 9:00 PM)30.22 "Hg (Aug 16, 9:00 PM)
Low45 °F (Aug 19, 4:59 AM)46% (Aug 15, 3:00 PM)29.69 "Hg (Aug 13, 1:00 AM)
Average63 °F84%29.97 "Hg
* Reported Midnight between Aug 12 and Aug 13 — Midnight between Aug 27 and Aug 28, Peterborough, Weather by CustomWeather, © 2014

Note: Actual official high and low records may vary slightly from our data, if they occured in-between our weather recording intervals... More about our weather records

Advertising

Peterborough weather history for previous 24 hours

 ConditionsComfort  
Time TempWeatherWind HumidityBarometerVisibility
12:00 AM
Aug 28
54 °FClear.No wind94%30.04 "Hg9 mi
11:00 PM
Aug 27
55 °FClear.7 mph88%30.03 "Hg9 mi
10:00 PM57 °FClear.5 mph82%30.04 "Hg9 mi
9:00 PM59 °FClear.8 mph77%30.05 "Hg9 mi
8:00 PM63 °FPassing clouds.7 mph73%30.03 "Hg9 mi
7:00 PM66 °FPartly sunny.14 mph64%30.02 "Hg9 mi
6:00 PM66 °FBroken clouds.16 mph64%30.03 "Hg9 mi
5:00 PM68 °FPartly sunny.18 mph64%30.02 "Hg9 mi
4:00 PM70 °FPartly sunny.10 mph64%30.01 "Hg9 mi
3:00 PM68 °FOvercast.8 mph69%30.01 "Hg9 mi
2:00 PM72 °FBroken clouds.13 mph61%30.02 "Hg9 mi
1:00 PM73 °FSunny.9 mph57%30.02 "Hg9 mi
12:00 PM72 °FSunny.7 mph61%30.03 "Hg9 mi
8:00 AM63 °FSunny.5 mph83%30.04 "Hg9 mi
7:00 AM59 °FClear.6 mph88%30.03 "Hg9 mi
6:00 AM61 °FPassing clouds.7 mph83%30.02 "Hg9 mi
5:00 AM63 °FClear.10 mph83%30.01 "Hg9 mi
4:00 AM66 °FPassing clouds.6 mph83%30.00 "Hg9 mi
3:00 AM66 °FPassing clouds.5 mph83%30.00 "Hg9 mi
2:00 AM70 °FOvercast.9 mph83%30.00 "Hg9 mi
1:00 AM70 °FOvercast.5 mph88%29.99 "Hg9 mi
Weather by CustomWeather, © 2014

See weather overviewHow to use our weather pages